Location: *
(50.8667°S, 179.2667°W)
Time: 01:40:38
(UTC+00:00)

Cosmos 1655 Rocket - Pass Details

Date: 02 October 2023
Orbit: 969 x 1006 km, 83.0° (Epoch: 01 December)

Event Time Altitude Azimuth Distance (km) Brightness Sun altitude
Rises 13:51:52 0° 190° (S) 3,723 7.6 -29.3°
Reaches altitude 10° 13:54:24 10° 190° (S) 2,774 6.9 -29.0°
Maximum altitude 14:00:48 88° 99° (E) 1,008 3.9 -28.4°
Enters shadow 14:01:37 70° 14° (NNE) 1,061 3.9 -28.3°
